Kuressaare current weather conditions

sailwx.info

Wind from 290 at 6 knots

Air temperature 5.0° C
Visibility: greater than 5.4 NM
Dewpoint 4.0° C

Last reported at 2018-Apr-26 02:50 UTC.
Time now 2018-Apr-26 03:39 UTC

Location: N 58°14' E 022°31'.
View on Google Maps.

See reports from other nearby stations

  
Tides and Currents Weather Stations Pressure Air Temp Water Temp Dewpoint Dewpoint Depression Visibility Wind Speed Wind Dir Waves Ship Positions
date/time (UTC)wind fromknots sea level pressurealtimeterstation pressurevisibilityair tempwater tempwave heightnotes
2018-Apr-26 02:50 290 6 5.4 5.0
2018-Apr-26 01:50 270 6 5.4 5.0
2018-Apr-26 00:50 260 6 5.4 6.0
2018-Apr-25 23:50 240 6 5.4 5.0
2018-Apr-25 22:50 260 4 5.4 5.0
2018-Apr-25 21:50 270 4 5.4 5.0
2018-Apr-25 20:50 270 5 5.4 5.0
2018-Apr-25 19:50 260 2 5.4 5.0
2018-Apr-25 19:28 260 4 5.4 5.0
2018-Apr-25 19:06 270 5 5.4 5.0
2018-Apr-25 18:50 250 6 5.4 5.0
2018-Apr-25 17:50 260 6 5.4 6.0
2018-Apr-25 16:50 250 7 5.4 6.0
2018-Apr-25 15:50 250 6 5.4 7.0
2018-Apr-25 14:50 270 6 5.4 7.0
2018-Apr-25 13:50 240 8 5.4 8.0
2018-Apr-25 12:50 250 8 5.4 8.0
2018-Apr-25 11:50 250 8 5.4 7.0
2018-Apr-25 10:50 240 12 5.4 7.0
2018-Apr-25 09:50 230 11 5.4 8.0
2018-Apr-25 09:27 240 9 5.4 9.0
2018-Apr-25 09:21 280 8 5.410.0
2018-Apr-25 08:50 280 7 5.4 9.0
2018-Apr-25 07:50 270 7 5.4 7.0
2018-Apr-25 06:50 270 8 5.4 7.0
2018-Apr-25 05:50 270 6 5.4 6.0 Light rain.
2018-Apr-25 04:50 270 8 5.4 6.0
2018-Apr-25 03:50 270 6 5.4 6.0
2018-Apr-25 03:37 270 6 5.4 6.0
2018-Apr-25 03:15 270 6 4.3 6.0 Drizzle.
2018-Apr-25 03:07 270 7 5.4 7.0 Light rain.
2018-Apr-25 02:52 270 6 5.4 7.0 Drizzle.
2018-Apr-25 02:50 270 6 3.2 7.0 Light rain.
2018-Apr-25 02:38 270 7 3.2 7.0 Light rain.
2018-Apr-25 02:06 280 9 5.4 7.0 Light rain.
2018-Apr-25 01:50 270 8 4.3 7.0 Light rain.
2018-Apr-25 01:18 280 8 4.9 7.0 Light rain.
2018-Apr-25 01:14 280 8 4.9 7.0 Light rain.
2018-Apr-25 01:01 270 8 5.4 7.0 Light rain.
2018-Apr-25 00:51 270 7 5.4 7.0
2018-Apr-25 00:50 280 7 5.4 7.0
2018-Apr-25 00:22 270 7 4.3 7.0 Light rain.
2018-Apr-24 23:50 260 7 2.7 6.0
2018-Apr-24 23:33 260 6 2.7 6.0 Mist.
2018-Apr-24 23:23 260 7 2.7 6.0 Mist.
2018-Apr-24 23:03 250 9 2.3 6.0 Rain.
2018-Apr-24 22:50 230 8 2.4 6.0 Light rain. Mist.
2018-Apr-24 22:37 240 8 2.2 6.0 Light rain.
2018-Apr-24 22:34 240 8 2.4 6.0 Rain.
2018-Apr-24 22:33 240 8 2.6 6.0 Light rain. Mist.
2018-Apr-24 22:32 240 8 2.7 6.0 Light rain. Mist.
2018-Apr-24 22:20 230 7 1.8 6.0 Mist.
2018-Apr-24 22:08 240 8 1.6 6.0 Mist.
2018-Apr-24 22:03 240 11 1.7 6.0 Light rain. Mist.
2018-Apr-24 21:50 240 9 2.1 6.0 Light rain.
2018-Apr-24 21:38 240 9 2.2 6.0 Light rain.
2018-Apr-24 21:37 240 9 2.7 6.0 Light rain. Mist.
2018-Apr-24 21:26 230 8 2.7 6.0 Drizzle. Mist.
2018-Apr-24 20:50 220 9 2.0 6.0 Mist.
2018-Apr-24 20:10 220 8 2.6 6.0 Mist.
2018-Apr-24 20:06 220 9 2.7 6.0 Light rain. Mist.
2018-Apr-24 20:00 220 9 3.2 6.0 Light rain.
2018-Apr-24 19:50 220 12 2.7 6.0 Light rain. Mist.
2018-Apr-24 19:27 220 9 2.7 6.0 Rain.
2018-Apr-24 19:14 210 11 2.5 6.0 Rain.
2018-Apr-24 19:12 210 11 2.7 6.0 Rain.
2018-Apr-24 19:10 210 11 3.2 6.0 Rain.
2018-Apr-24 18:50 210 9 3.8 6.0 Light rain.
2018-Apr-24 18:23 210 9 3.8 6.0 Light drizzle.
2018-Apr-24 18:03 210 9 3.2 6.0 Light rain.
2018-Apr-24 17:50 220 11 3.8 6.0 Light rain.
2018-Apr-24 17:35 220 12 3.2 6.0 Light rain.
2018-Apr-24 17:15 210 13 2.7 6.0 Light rain.
2018-Apr-24 17:00 210 8 3.2 6.0 Drizzle.
2018-Apr-24 16:50 220 9 3.2 6.0 Light rain.
2018-Apr-24 16:26 210 12 2.6 6.0 Light rain.
2018-Apr-24 16:24 210 12 2.7 6.0 Light rain.
2018-Apr-24 16:21 210 11 3.2 6.0 Light rain.
2018-Apr-24 16:10 210 11 3.2 6.0 Light rain.
2018-Apr-24 15:50 220 7 4.9 7.0 Light rain.
2018-Apr-24 14:50 240 9 5.4 7.0 Light rain.
2018-Apr-24 13:50 250 9 5.4 8.0
2018-Apr-24 12:50 250 12 5.4 8.0
2018-Apr-24 11:50 240 13 5.4 9.0
2018-Apr-24 10:50 240 7 5.410.0
2018-Apr-24 10:36 240 8 5.410.0
2018-Apr-24 09:50 230 9 5.4 8.0
2018-Apr-24 08:50 230 8 5.4 9.0
2018-Apr-24 07:50 230 6 5.4 8.0
2018-Apr-24 06:50 240 5 5.4 8.0
2018-Apr-24 05:50 240 8 4.9 8.0
2018-Apr-24 05:00 220 6 1.9 7.0 Mist.
2018-Apr-24 04:50 220 7 1.1 6.0 Mist.
2018-Apr-24 04:30 220 7 0.8 6.0 Mist.
2018-Apr-24 04:29 220 7 1.0 6.0 Mist.
2018-Apr-24 04:28 220 8 1.0 6.0 Mist.
2018-Apr-24 04:02 210 7 1.3 6.0 Mist.
2018-Apr-24 03:55 200 6 1.6 6.0 Mist.
2018-Apr-24 03:50 180 5 1.9 6.0 Mist.
2018-Apr-24 03:35 190 5 1.8 6.0 Mist.
2018-Apr-24 03:00 220 4 1.8 6.0 Mist.